{"data":{"norad_id":59503,"intl_designator":"2024-071V","name":"STARLINK-31508","alt_names":[],"object_type":"PAYLOAD","status":"ACTIVE","operator":null,"country":"US","launch_date":"2024-04-13","launch_site_code":"AFETR","launch_vehicle":null,"mission":null,"orbit_class":"UNKNOWN","rcs_meters":null,"size_class":null,"mass_kg":null,"dimensions":null,"purposes":["comms"],"wikipedia_slug":null,"has_3d_model":false,"image_url":null,"decayed_at":null,"tle_current":{"epoch":"2026-09-21T09:48:27.240768Z","epoch_age_seconds":86841,"freshness":"FRESH","line1":"1 59503U 24071V   26264.40864862  .00001250  00000+0  54928-4 0  9993","line2":"2 59503  43.0034 314.8256 0001429 264.0222  96.0466 15.27585571138134","mean_motion":15.27585571,"eccentricity":0.0001429,"inclination_deg":43.0034,"raan_deg":314.8256,"arg_perigee_deg":264.0222,"mean_anomaly_deg":96.0466,"bstar":5.4928e-5,"rev_number":13813,"period_min":94.266404929273,"perigee_km":482.05195340286,"apogee_km":484.01287562153,"semimajor_km":6861.1694145122,"source":"CELESTRAK","updated_at":"2026-09-22T09:00:48.961035Z"}}}